Faribault, MN

12:21 PM CDT on May 26, 2017 (GMT -0500)
Faribault Municipal

Weather History for KFBL - April, 2014

Change the Weather History Date:

Saturday, April 5, 2014

  Actual Average Record
Temperature  
Mean Temperature 40 °F -  
Max Temperature 53 °F 50 °F 104 °F (1999)
Min Temperature 28 °F 28 °F 16 °F (1979)
Degree Days  
Heating Degree Days 24    
Moisture  
Dew Point 29 °F    
Average Humidity 65    
Maximum Humidity 86    
Minimum Humidity 50    
Precipitation  
Precipitation 0.00 in - - ()
Sea Level Pressure  
Sea Level Pressure 30.06 in    
Wind  
Wind Speed 7 mph (South)    
Max Wind Speed 16 mph    
Max Gust Speed 24 mph    
Visibility 9 miles    
Events      
Averages and records for this station are not official NWS values.
T = Trace of Precipitation, MM = Missing Value Source: NWS Daily Summary

Daily Weather History Graph

Daily Weather History Graph

Search for Another Location

Airport or City:

Trip Planner

Search our weather history database for the weather conditions in past years. The results will help you decide how hot, cold, wet, or windy it might be!

Date:

Astronomy

Apr. 05, 2014 Rise Set
Actual Time 6:47 AM CDT 7:45 PM CDT
Civil Twilight 6:17 AM CDT 8:15 PM CDT
Nautical Twilight 5:42 AM CDT 8:50 PM CDT
Astronomical Twilight 5:05 AM CDT 9:27 PM CDT
Moon 10:47 AM CDT (4/5) 1:03 AM CDT (4/5)
Length of Visible Light 13h 57m
Length of Day
12h 58m
Waxing Crescent, 34% of the Moon is Illuminated
Apr 5
Waxing Crescent
Apr 7
First Quarter
Apr 15
Full
Apr 22
Last Quarter
Apr 29
New

Hourly Weather History & Observations

Time (CDT) Temp. Windchill Dew Point Humidity Pressure Visibility Wind Dir Wind Speed Gust Speed Precip Events Conditions
12:14 AM 33.8 °F 27.0 °F 26.6 °F 75% 30.06 in 10.0 mi West 8.1 mph - N/A   Clear
12:34 AM 33.8 °F 27.7 °F 26.6 °F 75% 30.06 in 10.0 mi West 6.9 mph - N/A   Clear
12:54 AM 33.8 °F 27.7 °F 26.6 °F 75% 30.07 in 10.0 mi WSW 6.9 mph - N/A   Clear
1:14 AM 32.0 °F 27.5 °F 24.8 °F 75% 30.07 in 10.0 mi WSW 4.6 mph - N/A   Clear
1:34 AM 32.0 °F 28.7 °F 26.6 °F 80% 30.07 in 10.0 mi WSW 3.5 mph - N/A   Clear
1:54 AM 30.2 °F 26.7 °F 24.8 °F 80% 30.08 in 10.0 mi WSW 3.5 mph - N/A   Clear
2:14 AM 30.2 °F 26.7 °F 24.8 °F 80% 30.08 in 10.0 mi SW 3.5 mph - N/A   Clear
2:34 AM 30.2 °F - 24.8 °F 80% 30.08 in 10.0 mi Calm Calm - N/A   Clear
2:54 AM 30.2 °F 25.4 °F 24.8 °F 80% 30.09 in 10.0 mi SSW 4.6 mph - N/A   Clear
3:14 AM 30.2 °F 26.7 °F 24.8 °F 80% 30.09 in 10.0 mi SW 3.5 mph - N/A   Clear
3:34 AM 30.2 °F 26.7 °F 24.8 °F 80% 30.09 in 10.0 mi SW 3.5 mph - N/A   Clear
3:54 AM 30.2 °F 24.3 °F 24.8 °F 80% 30.08 in 10.0 mi SW 5.8 mph - N/A   Clear
4:14 AM 30.2 °F 25.4 °F 24.8 °F 80% 30.09 in 10.0 mi SW 4.6 mph - N/A   Clear
4:34 AM 30.2 °F 25.4 °F 24.8 °F 80% 30.09 in 7.0 mi SW 4.6 mph - N/A   Clear
4:54 AM 28.4 °F 23.3 °F 24.8 °F 86% 30.09 in 7.0 mi SW 4.6 mph - N/A   Clear
5:14 AM 28.4 °F 23.3 °F 24.8 °F 86% 30.09 in 7.0 mi SW 4.6 mph - N/A   Clear
5:34 AM 28.4 °F 23.3 °F 24.8 °F 86% 30.09 in 10.0 mi SW 4.6 mph - N/A   Clear
5:54 AM 28.4 °F - 24.8 °F 86% 30.09 in 7.0 mi Calm Calm - N/A   Clear
6:14 AM 28.4 °F - 24.8 °F 86% 30.09 in 7.0 mi Calm Calm - N/A   Clear
6:34 AM 28.4 °F - 23.0 °F 80% 30.09 in 5.0 mi Calm Calm - N/A   Haze
6:54 AM 28.4 °F 24.6 °F 23.0 °F 80% 30.10 in 5.0 mi South 3.5 mph - N/A   Haze
7:14 AM 28.4 °F 24.6 °F 24.8 °F 86% 30.11 in 5.0 mi South 3.5 mph - N/A   Haze
7:34 AM 30.2 °F - 24.8 °F 80% 30.11 in 5.0 mi Calm Calm - N/A   Haze
7:53 AM 30.2 °F 26.7 °F 26.6 °F 86% 30.11 in 5.0 mi SSE 3.5 mph - N/A   Haze
8:14 AM 32.0 °F - 26.6 °F 80% 30.12 in 7.0 mi Calm Calm - N/A   Clear
8:34 AM 33.8 °F 30.8 °F 26.6 °F 75% 30.12 in 7.0 mi South 3.5 mph - N/A   Clear
8:53 AM 33.8 °F 27.7 °F 26.6 °F 75% 30.12 in 10.0 mi South 6.9 mph - N/A   Clear
9:14 AM 35.6 °F 31.7 °F 26.6 °F 70% 30.12 in 10.0 mi South 4.6 mph - N/A   Clear
9:34 AM 37.4 °F 32.1 °F 26.6 °F 65% 30.12 in 10.0 mi SSW 6.9 mph - N/A   Clear
9:54 AM 37.4 °F 31.4 °F 26.6 °F 65% 30.12 in 10.0 mi South 8.1 mph - N/A   Clear
10:14 AM 39.2 °F 33.0 °F 26.6 °F 61% 30.12 in 10.0 mi South 9.2 mph - N/A   Clear
10:34 AM 39.2 °F 33.6 °F 26.6 °F 61% 30.12 in 10.0 mi South 8.1 mph - N/A   Clear
10:54 AM 41.0 °F 35.2 °F 26.6 °F 57% 30.13 in 10.0 mi South 9.2 mph - N/A   Clear
11:14 AM 42.8 °F 35.8 °F 28.4 °F 57% 30.13 in 10.0 mi SSW 13.8 mph 17.3 mph N/A   Clear
11:34 AM 42.8 °F 37.0 °F 28.4 °F 57% 30.12 in 10.0 mi South 10.4 mph - N/A   Clear
11:54 AM 42.8 °F 37.0 °F 28.4 °F 57% 30.12 in 10.0 mi South 10.4 mph 16.1 mph N/A   Clear
12:14 PM 44.6 °F 38.4 °F 30.2 °F 57% 30.11 in 10.0 mi South 12.7 mph - N/A   Clear
12:34 PM 44.6 °F 39.2 °F 30.2 °F 57% 30.11 in 10.0 mi South 10.4 mph 16.1 mph N/A   Clear
12:54 PM 46.4 °F 41.9 °F 30.2 °F 53% 30.11 in 10.0 mi South 9.2 mph 17.3 mph N/A   Clear
1:14 PM 46.4 °F 40.7 °F 32.0 °F 57% 30.10 in 10.0 mi SSW 12.7 mph 17.3 mph N/A   Clear
1:34 PM 46.4 °F 41.1 °F 32.0 °F 57% 30.10 in 10.0 mi SSW 11.5 mph 18.4 mph N/A   Clear
1:54 PM 48.2 °F - 32.0 °F 54% 30.09 in 10.0 mi SSW 13.8 mph 17.3 mph N/A   Clear
2:14 PM 48.2 °F - 33.8 °F 58% 30.08 in 10.0 mi South 11.5 mph 18.4 mph N/A   Clear
2:34 PM 48.2 °F - 33.8 °F 58% 30.08 in 10.0 mi South 11.5 mph 18.4 mph N/A   Clear
2:54 PM 50.0 °F - 33.8 °F 54% 30.06 in 10.0 mi South 12.7 mph 18.4 mph N/A   Scattered Clouds
3:14 PM 51.8 °F - 33.8 °F 50% 30.06 in 10.0 mi South 13.8 mph 24.2 mph N/A   Clear
3:33 PM 51.8 °F - 35.6 °F 54% 30.05 in 10.0 mi South 10.4 mph 17.3 mph N/A   Clear
3:54 PM 51.8 °F - 35.6 °F 54% 30.04 in 10.0 mi SSE 13.8 mph 20.7 mph N/A   Clear
4:14 PM 51.8 °F - 35.6 °F 54% 30.02 in 10.0 mi South 11.5 mph 20.7 mph N/A   Clear
4:33 PM 53.6 °F - 35.6 °F 51% 30.02 in 10.0 mi SSE 12.7 mph 20.7 mph N/A   Clear
4:54 PM 53.6 °F - 35.6 °F 51% 30.01 in 10.0 mi SSE 13.8 mph 18.4 mph N/A   Clear
5:14 PM 53.6 °F - 35.6 °F 51% 30.00 in 10.0 mi SSE 16.1 mph - N/A   Clear
5:34 PM 53.6 °F - 35.6 °F 51% 30.01 in 10.0 mi South 10.4 mph - N/A   Clear
5:54 PM 53.6 °F - 35.6 °F 51% 30.01 in 10.0 mi South 12.7 mph 17.3 mph N/A   Clear
6:14 PM 51.8 °F - 33.8 °F 50% 30.00 in 10.0 mi South 13.8 mph - N/A   Scattered Clouds
6:34 PM 51.8 °F - 33.8 °F 50% 30.00 in 10.0 mi SSE 11.5 mph 19.6 mph N/A   Scattered Clouds
6:54 PM 51.8 °F - 33.8 °F 50% 30.00 in 10.0 mi SSE 10.4 mph - N/A   Overcast
7:13 PM 51.8 °F - 33.8 °F 50% 30.00 in 10.0 mi SSE 10.4 mph - N/A   Mostly Cloudy
7:34 PM 50.0 °F - 33.8 °F 54% 29.99 in 10.0 mi SSE 10.4 mph 16.1 mph N/A   Overcast
7:54 PM 48.2 °F - 33.8 °F 58% 29.99 in 10.0 mi SSE 10.4 mph - N/A   Mostly Cloudy
8:13 PM 48.2 °F - 33.8 °F 58% 29.99 in 10.0 mi SSE 10.4 mph - N/A   Mostly Cloudy
8:34 PM 46.4 °F 41.5 °F 32.0 °F 57% 29.99 in 10.0 mi SSE 10.4 mph - N/A   Scattered Clouds
8:54 PM 46.4 °F 41.9 °F 32.0 °F 57% 29.99 in 10.0 mi SSE 9.2 mph - N/A   Clear
9:14 PM 46.4 °F 41.9 °F 32.0 °F 57% 29.99 in 10.0 mi SSE 9.2 mph - N/A   Clear
9:34 PM 44.6 °F 40.2 °F 32.0 °F 61% 30.00 in 10.0 mi South 8.1 mph - N/A   Clear
9:53 PM 44.6 °F 41.4 °F 32.0 °F 61% 30.00 in 10.0 mi South 5.8 mph - N/A   Clear
10:14 PM 44.6 °F 40.2 °F 32.0 °F 61% 29.99 in 10.0 mi SSE 8.1 mph - N/A   Clear
10:34 PM 44.6 °F 40.7 °F 30.2 °F 57% 29.99 in 10.0 mi SSE 6.9 mph - N/A   Scattered Clouds
10:54 PM 44.6 °F 40.2 °F 30.2 °F 57% 29.98 in 10.0 mi SSE 8.1 mph - N/A   Scattered Clouds
11:14 PM 44.6 °F 38.8 °F 28.4 °F 53% 29.98 in 10.0 mi SSE 11.5 mph 16.1 mph N/A   Scattered Clouds
11:34 PM 44.6 °F 39.2 °F 28.4 °F 53% 29.98 in 10.0 mi SSE 10.4 mph 16.1 mph N/A   Scattered Clouds
11:54 PM 44.6 °F 39.2 °F 28.4 °F 53% 29.97 in 10.0 mi SSE 10.4 mph 17.3 mph N/A   Scattered Clouds